Printer-friendly version

IAU Minor Planet Center

Minor Planet Center

MPEC 2005-F44 : 2005 FE3

The following Minor Planet Electronic Circular may be linked-to from your own Web pages, but must not otherwise be redistributed electronically.


Read MPEC 2005-F43 Read MPEC 2005-F45


M.P.E.C. 2005-F44                                Issued 2005 Mar. 25, 10:48 UT

     The Minor Planet Electronic Circulars contain information on unusual
         minor planets and routine data on comets.  They are published
   on behalf of Commission 20 of the International Astronomical Union by the
          Minor Planet Center, Smithsonian Astrophysical Observatory,
                          Cambridge, MA 02138, U.S.A.

                  Supported in part by the Brinson Foundation
             Prepared using the Tamkin Foundation Computer Network

                              MPC@CFA.HARVARD.EDU
          URL http://cfa-www.harvard.edu/iau/mpc.html  ISSN 1523-6714

                                   2005 FE3

Observations:
     K05F03E* C2005 03 23.33888 14 17 07.40 +58 27 25.0          18.3   EF044704
     K05F03E  C2005 03 23.34966 14 17 10.52 +58 27 47.8          18.2   EF044704
     K05F03E  C2005 03 23.36038 14 17 13.70 +58 28 11.7          18.4   EF044704
     K05F03E  C2005 03 23.37114 14 17 17.06 +58 28 34.5          18.6   EF044704
     K05F03E BC2005 03 24.84696 14 25 28.96 +59 20 23.6                 EF044J95
     K05F03E BC2005 03 24.85791 14 25 32.71 +59 20 49.2                 EF044J95
     K05F03E WC2005 03 24.86843 14 25 36.18 +59 21 13.3          18.5 R EF044J95
     K05F03E 2C2005 03 25.31167 14 28 09.44 +59 36 53.0          17.8 R EF044H06
     K05F03E 2C2005 03 25.31686 14 28 10.88 +59 37 04.1          18.1 R EF044H06
     K05F03E 2C2005 03 25.32259 14 28 12.92 +59 37 15.9          18.2 R EF044H06

Observer details:
704 Lincoln Laboratory ETS, New Mexico.  Observers M. Blythe, F. Shelly,
    M. Bezpalko, R. Huber, L. Manguso, D. Torres, R. Kracke, M. McCleary,
    H. Stange, A. Milner.  Measurers J. Stuart, R. Sayer, J. Evans, J. Kommers.
    1.0-m f/2.15 reflector + CCD.
H06 New Mexico Skies Observatory.  Observer R. Hutsebaut.  0.25-m reflector
    + CCD.
J95 Great Shefford.  Observer P. Birtwhistle.  0.30-m f/6.3 Schmidt-Cassegrain
    + CCD.

Orbital elements:
2005 FE3                                                             PHA 0.047D
Epoch 2005 Mar. 11.0 TT = JDT 2453440.5                 MPC
M 340.75957              (2000.0)            P               Q
n   0.31685050     Peri.  145.83883     -0.54869875     +0.80462087
a   2.1309166      Node    89.87314     -0.80876429     -0.44211684
e   0.5384547      Incl.   13.11872     -0.21173099     -0.39638107
P   3.11           H   18.8           G   0.15
From 10 observations 2005 Mar. 23-25.

Ephemeris:
2005 FE3                 a,e,i = 2.13, 0.54, 13                  q = 0.9835
Date    TT    R. A. (2000) Decl.     Delta      r     Elong.  Phase     V
2005 03 21    14 05.26   +57 01.0    0.300    1.166   117.7    49.2    18.4
2005 03 31    15 06.26   +62 34.2    0.262    1.107   107.7    59.3    18.2
2005 04 10    16 40.53   +65 23.2    0.229    1.057    97.6    70.0    18.2
2005 04 20    18 37.05   +62 39.2    0.200    1.018    88.1    80.5    18.2
2005 04 30    20 16.03   +52 42.8    0.179    0.993    80.3    89.5    18.2
2005 05 10    21 23.98   +37 10.7    0.170    0.984    76.3    94.0    18.3
2005 05 20    22 10.53   +20 01.7    0.178    0.991    78.1    91.8    18.3
2005 05 30    22 44.24   +05 05.1    0.199    1.013    84.3    84.5    18.3
2005 06 09    23 08.90   -06 31.8    0.229    1.050    92.5    74.9    18.3
2005 06 19    23 25.84   -15 32.2    0.262    1.099   101.6    64.9    18.4
2005 06 29    23 35.41   -22 49.5    0.297    1.157   111.0    55.1    18.5
2005 07 09    23 37.29   -28 58.2    0.334    1.222   120.8    45.6    18.6
2005 07 19    23 31.39   -34 06.3    0.375    1.292   130.5    36.8    18.7
2005 07 29    23 18.65   -38 04.9    0.423    1.364   139.3    29.1    18.9
2005 08 08    23 01.19   -40 41.9    0.482    1.439   145.9    23.2    19.1
2005 08 18    22 42.53   -41 52.1    0.553    1.514   149.1    20.1    19.4
2005 08 28    22 26.11   -41 46.1    0.639    1.589   148.0    19.7    19.8
2005 09 07    22 14.04   -40 43.2    0.741    1.664   143.8    21.0    20.3
2005 09 17    22 07.05   -39 03.2    0.856    1.737   137.8    22.9    20.8
2005 09 27    22 04.73   -37 02.6    0.986    1.810   131.1    24.7    21.2
2005 10 07    22 06.28   -34 51.5    1.128    1.881   124.2    26.1    21.6
2005 10 17    22 10.92   -32 35.9    1.281    1.950   117.3    27.0    22.0

Timothy B. Spahr             (C) Copyright 2005 MPC           M.P.E.C. 2005-F44

Read MPEC 2005-F43 Read MPEC 2005-F45


Our Web policy. Index to the CBAT/MPC/ICQ pages.


Valid HTML 4.01!